Location: Arthez
(43.0833°N, 0.2500°W)
Time: 08:14:11
(UTC+00:00)

Cosmos 1844 Rocket - Pass Details

Date: 23 October 2021
Orbit: 826 x 843 km, 71.0° (Epoch: 02 December)

Event Time Altitude Azimuth Distance (km) Brightness Sun altitude
Rises 17:38:10 0° 345° (NNW) 3,375 5.9 -6.7°
Reaches altitude 10° 17:41:20 10° 3° (N) 2,437 5.0 -7.2°
Maximum altitude 17:45:17 19° 48° (NE) 1,861 4.0 -7.9°
Drops below altitude 10° 17:49:13 10° 94° (E) 2,428 4.4 -8.6°
Enters shadow 17:49:15 10° 94° (E) 2,439 4.5 -8.7°
